Hoquiam, WA
on Tuesday, November 13, 2012

Tuesday
Previous Day Next Day
Daily Summary
 ActualAverageRecord
Temperature
Mean Temperature °F 46°F  
Max Temperature 52°F 52°F 61°F (1969)
Min Temperature 46°F 41°F 18°F (1955)
Degree Days
Heating Degree Days 16 19  
Month to date heating degree days 226  
Cooling Degree Days 0 0  
Month to date cooling degree days 0  
Year to date cooling degree days 23  
Moisture
Dew Point 48°F   
Average Humidity 96    
Maximum Humidity 100    
Minimum Humidity 88    
Precipitation
Precipitation 0.35 in 0.38 in 3.11 in (1998)
Month to date precipitation 4.66  
Year to date precipitation 51.08  
Wind
Wind Speed 4 mph   
Max Wind Speed 9 mph   
Max Gust Speed mph   
Visibility 7 miles   
Events Rain   

Key: T is trace of precipitation, MM is missing value
Source: NWS Daily Summary
Time(PST)TemperatureDew PointHumidity Pressure Visibility Wind DirectionWind SpeedGust SpeedPrecipitationEvents Conditions
12:07 AM 51.8°F 48.2°F 88% 30.20 in 10.0 miles SSE 4.6 mph - N/A   Overcast
12:53 AM 50.0°F 48.0°F 93% 30.21 in 10.0 miles SSE 4.6 mph - N/A   Scattered Clouds
1:18 AM 50.0°F 48.2°F 94% 30.19 in 10.0 miles South 6.9 mph - N/A   Mostly Cloudy
1:53 AM 50.0°F 48.0°F 93% 30.21 in 10.0 miles SE 4.6 mph - N/A   Mostly Cloudy
2:53 AM 48.9°F 48.0°F 97% 30.21 in 10.0 miles Calm Calm - N/A   Mostly Cloudy
3:22 AM 48.2°F 48.2°F 100% 30.19 in 10.0 miles ENE 3.5 mph - N/A   Scattered Clouds
3:32 AM 48.2°F 48.2°F 100% 30.19 in 10.0 miles ENE 3.5 mph - N/A   Mostly Cloudy
3:53 AM 48.9°F 48.9°F 100% 30.20 in 10.0 miles Calm Calm - N/A   Overcast
4:27 AM 48.2°F 48.2°F 100% 30.19 in 10.0 miles ENE 3.5 mph - N/A   Overcast
4:53 AM 48.9°F 48.0°F 97% 30.19 in 10.0 miles Calm Calm - N/A   Overcast
5:20 AM 50.0°F 48.2°F 94% 30.18 in 10.0 miles NE 3.5 mph - N/A   Overcast
5:53 AM 48.9°F 48.0°F 97% 30.19 in 10.0 miles Calm Calm - 0.01 in Rain Light Rain
6:53 AM 48.9°F 48.0°F 97% 30.19 in 10.0 miles ENE 5.8 mph - 0.01 in   Overcast
7:00 AM 50.0°F 48.2°F 94% 30.17 in 10.0 miles ENE 4.6 mph - N/A   Overcast
7:31 AM 50.0°F 48.2°F 94% 30.17 in 9.0 miles ENE 4.6 mph - 0.01 in Rain Light Rain
7:53 AM 50.0°F 48.0°F 93% 30.19 in 9.0 miles ENE 4.6 mph - 0.01 in   Overcast
8:02 AM 50.0°F 48.2°F 94% 30.18 in 6.0 miles ENE 5.8 mph - 0.00 in Rain Light Rain
8:53 AM 48.9°F 48.0°F 97% 30.19 in 7.0 miles ENE 6.9 mph - 0.03 in Rain Light Rain
9:05 AM 50.0°F 48.2°F 94% 30.18 in 6.0 miles ENE 5.8 mph - 0.01 in Rain Light Rain
9:53 AM 50.0°F 48.9°F 96% 30.18 in 5.0 miles East 9.2 mph - 0.03 in Rain Light Rain
10:21 AM 50.0°F 48.2°F 94% 30.17 in 10.0 miles East 6.9 mph - 0.00 in   Overcast
10:46 AM 50.0°F 48.2°F 94% 30.17 in 10.0 miles East 5.8 mph - 0.00 in Rain Light Rain
10:53 AM 50.0°F 48.9°F 96% 30.19 in 10.0 miles ENE 5.8 mph - 0.00 in Rain Light Rain
11:53 AM 51.1°F 50.0°F 96% 30.17 in 4.0 miles ENE 5.8 mph - 0.06 in Rain Light Rain
12:53 PM 51.1°F 50.0°F 96% 30.16 in 10.0 miles ENE 4.6 mph - 0.02 in Rain Light Rain
1:22 PM 51.8°F 50.0°F 94% 30.14 in 10.0 miles East 5.8 mph - 0.00 in   Overcast
1:50 PM 51.8°F 50.0°F 94% 30.14 in 3.0 miles East 6.9 mph - 0.01 in Rain Light Rain
1:53 PM 51.1°F 50.0°F 96% 30.15 in 3.0 miles East 5.8 mph - 0.01 in Rain Light Rain
2:07 PM 51.8°F 50.0°F 94% 30.14 in 5.0 miles East 5.8 mph - 0.01 in Rain Light Rain
2:30 PM 51.8°F 50.0°F 94% 30.12 in 10.0 miles ESE 6.9 mph - 0.02 in Rain Light Rain
2:53 PM 52.0°F 50.0°F 93% 30.13 in 9.0 miles SE 8.1 mph - 0.02 in Rain Light Rain
3:02 PM 51.8°F 48.2°F 88% 30.12 in 10.0 miles SE 6.9 mph - 0.00 in   Overcast
3:53 PM 51.1°F 50.0°F 96% 30.14 in 5.0 miles SSE 5.8 mph - 0.04 in Rain Light Rain
4:11 PM 51.8°F 50.0°F 94% 30.13 in 2.5 miles South 5.8 mph - 0.02 in Rain Light Rain
4:20 PM 51.8°F 48.2°F 88% 30.13 in 3.0 miles South 8.1 mph - 0.03 in Rain Light Rain
4:43 PM 51.8°F 50.0°F 94% 30.13 in 6.0 miles SSW 9.2 mph - 0.05 in Rain Light Rain
4:53 PM 50.0°F 50.0°F 100% 30.14 in 6.0 miles SSW 9.2 mph - 0.05 in Rain Light Rain
5:07 PM 50.0°F 50.0°F 100% 30.12 in 8.0 miles SSW 6.9 mph - 0.01 in   Overcast
5:35 PM 50.0°F 50.0°F 100% 30.13 in 2.5 miles SW 4.6 mph - 0.04 in Rain Light Rain
5:39 PM 50.0°F 50.0°F 100% 30.13 in 3.0 miles South 3.5 mph - 0.05 in Rain Light Rain
5:53 PM 50.0°F 50.0°F 100% 30.14 in 10.0 miles South 3.5 mph - 0.05 in   Overcast
6:01 PM 50.0°F 48.2°F 94% 30.13 in 10.0 miles South 5.8 mph - N/A   Overcast
6:53 PM 50.0°F 48.0°F 93% 30.14 in 10.0 miles Calm Calm - N/A   Overcast
7:53 PM 48.9°F 48.0°F 97% 30.15 in 10.0 miles Calm Calm - N/A   Overcast
8:53 PM 46.0°F 45.0°F 96% 30.16 in 2.0 miles Calm Calm - N/A   Clear
9:07 PM 46.4°F 46.4°F 100% 30.15 in 1.2 miles Calm Calm - N/A   Clear
9:12 PM 46.4°F 46.4°F 100% 30.15 in 4.0 miles Calm Calm - N/A   Clear
9:40 PM 46.4°F 44.6°F 93% 30.16 in 1.8 miles Calm Calm - N/A   Mostly Cloudy
9:48 PM 46.4°F 46.4°F 100% 30.17 in 3.0 miles Calm Calm - N/A   Mostly Cloudy
9:53 PM 46.9°F 46.9°F 100% 30.18 in 8.0 miles Calm Calm - N/A   Overcast
10:27 PM 46.4°F 46.4°F 100% 30.18 in 10.0 miles Calm Calm - N/A   Overcast
10:53 PM 46.9°F 46.9°F 100% 30.19 in 4.0 miles Calm Calm - 0.00 in Rain Light Rain
10:58 PM 46.4°F 46.4°F 100% 30.18 in 2.5 miles Calm Calm - 0.01 in Rain Light Rain
11:10 PM 48.2°F 46.4°F 93% 30.18 in 5.0 miles Calm Calm - 0.01 in Rain Light Rain
11:17 PM 48.2°F 46.4°F 93% 30.18 in 6.0 miles Calm Calm - 0.01 in   Overcast
11:25 PM 48.2°F 46.4°F 93% 30.18 in 5.0 miles Calm Calm - 0.01 in   Overcast
11:29 PM 46.4°F 46.4°F 100% 30.18 in 4.0 miles NNW 3.5 mph - 0.01 in   Overcast
11:36 PM 46.4°F 46.4°F 100% 30.19 in 5.0 miles Calm Calm - 0.01 in   Mostly Cloudy
11:53 PM 48.0°F 48.0°F 100% 30.21 in 10.0 miles South 3.5 mph - 0.01 in   Overcast
Moon Phase
Nov. 13 Nov. 13 Nov. 20 Nov. 28 Dec. 06
Sunrise:07:16 AM (PST) Moon Rise:07:03 AM (PST)11/13
Sunset:04:42 PM (PST) Moon Set:04:38 PM (PST)11/13

Copyright © 2014 The Weather Underground, Inc.